Location: Pedholt
(56.0260°N, 10.2097°E)
Time: 06:21:36
(UTC+00:00)

Iridium 4 Rocket - Pass Details

Date: 14 July 2020
Orbit: 583 x 906 km, 86.9° (Epoch: 14 August)

Event Time Altitude Azimuth Distance (km) Brightness Sun altitude
Exits shadow 00:24:13 15° 191° (S) 2,143 5.1 -11.3°
Maximum altitude 00:28:56 75° 275° (W) 850 3.7 -11.2°
Drops below altitude 10° 00:34:10 10° 2° (N) 2,318 7.4 -11.0°
Sets 00:36:26 0° 4° (N) 3,198 8.6 -10.9°
